Location: Unspecified
(0.0000°N, 0.0000°E)
Time: 18:55:40
(UTC+00:00)

Explorer 7 - All Passes

Search period start: 18 April 2019 00:00
Search period end: 28 April 2019 00:00
Orbit: 485 x 680 km, 50.3° (Epoch: 17 April)

Date Brightness Start Highest point End Pass type
(mag) Time Alt. Az. Time Alt. Az. Time Alt. Az.
18 Apr - 05:45:36 10° SSW 05:49:33 35° SE 05:53:17 10° ENE daylight
18 Apr - 07:28:12 10° WNW 07:29:50 12° NW 07:31:26 10° NNW daylight
18 Apr - 17:47:00 10° NNW 17:51:13 54° NE 17:55:44 10° SE daylight
18 Apr - 19:30:43 10° WSW 19:31:48 11° SW 19:32:55 10° SW visible
19 Apr - 05:50:20 10° SW 05:54:39 81° SE 05:58:41 10° NE daylight
19 Apr - 17:51:59 10° NW 17:56:17 70° SW 18:00:53 10° SSE daylight
20 Apr - 04:17:54 10° SSE 04:19:11 11° SE 04:20:27 10° ESE visible
20 Apr - 05:55:36 10° SW 05:59:43 44° NW 06:03:34 10° NNE daylight
20 Apr - 16:18:29 10° NNE 16:21:03 16° NE 16:23:42 10° E daylight
20 Apr - 17:57:28 10° WNW 18:01:23 33° SW 18:05:32 10° SSE daylight
21 Apr - 04:20:52 10° S 04:24:23 23° SE 04:27:44 10° ENE visible
21 Apr - 06:01:32 10° WSW 06:04:44 21° NW 06:07:49 10° N daylight
21 Apr - 16:22:20 10° N 16:26:05 32° NE 16:30:04 10° ESE daylight
21 Apr - 18:03:45 10° W 18:06:32 16° SW 18:09:27 10° S daylight
22 Apr - 04:25:13 10° SSW 04:29:31 47° SE 04:33:33 10° NE visible
22 Apr - 16:26:58 10° NNW 16:31:07 70° NE 16:35:35 10° SE daylight
23 Apr - 04:30:08 10° SW 04:34:36 77° NW 04:38:45 10° NNE visible
23 Apr - 16:32:06 10° NW 16:36:11 53° SW 16:40:34 10° SSE daylight
24 Apr - 02:56:32 10° SSE 02:59:10 15° SE 03:01:42 10° E visible
24 Apr - 04:35:35 10° WSW 04:39:38 34° NW 04:43:26 10° NNE visible
24 Apr - 14:58:02 10° N 15:00:58 19° NE 15:04:02 10° E daylight
24 Apr - 16:37:50 10° WNW 16:41:19 25° SW 16:44:59 10° S daylight
25 Apr - 03:00:18 10° S 03:04:20 30° SE 03:08:07 10° ENE visible
25 Apr - 04:41:48 10° W 04:44:40 17° NW 04:47:25 10° NNW visible
25 Apr - 15:02:11 10° NNW 15:06:00 40° NE 15:10:04 10° SE daylight
25 Apr - 16:44:42 10° WSW 16:46:30 12° SW 16:48:19 10° SSW daylight
26 Apr - 03:04:52 10° SSW 03:09:26 64° SE 03:13:41 10° NE visible
26 Apr - 15:06:59 10° NW 15:11:02 89° WSW 15:15:24 10° SE daylight
27 Apr - 03:09:58 10° SW 03:14:29 59° NW 03:18:43 10° NNE visible
27 Apr - 13:34:41 10° NE 13:35:51 11° NE 13:37:02 10° ENE daylight
27 Apr - 15:12:18 10° WNW 15:16:07 39° SW 15:20:11 10° SSE daylight
